This is the latest recevied weather packets stored in our database for station/object KC6OYN. If no packets are shown the sender has not sent any weather packets the latest 10 day(s).
| Time | Temp. | Humidity | Pressure | Rain* | Wind** | Luminosity | Snow |
|---|---|---|---|---|---|---|---|
| 1778015881 | 12.22° C | 74% | 1024.4 hPa | 0 mm | - | - | - |
| 1778015641 | 12.22° C | 74% | 1024.3 hPa | 0 mm | - | - | - |
| 1778015400 | 12.22° C | 74% | 1024.3 hPa | 0 mm | - | - | - |
| 1778015159 | 12.22° C | 73% | 1024.4 hPa | 0 mm | - | - | - |
| 1778014918 | 12.22° C | 73% | 1024.3 hPa | 0 mm | - | - | - |
| 1778014677 | 12.78° C | 73% | 1024.4 hPa | 0 mm | - | - | - |
| 1778014436 | 12.78° C | 73% | 1024.3 hPa | 0 mm | - | - | - |
| 1778014195 | 12.78° C | 73% | 1024.4 hPa | 0 mm | - | - | - |
| 1778013713 | 13.33° C | 73% | 1024.2 hPa | 0 mm | - | - | - |
| 1778012990 | 13.89° C | 73% | 1024.3 hPa | 0 mm | - | - | - |
| 1778012750 | 14.44° C | 74% | 1024.3 hPa | 0 mm | - | - | - |
| 1778012509 | 14.44° C | 74% | 1024.4 hPa | 0 mm | - | - | - |
| 1778012268 | 14.44° C | 74% | 1024.4 hPa | 0 mm | - | - | - |
| 1778012027 | 14.44° C | 75% | 1024.4 hPa | 0 mm | - | - | - |
| 1778011786 | 14.44° C | 75% | 1024.4 hPa | 0 mm | - | - | - |
| 1778011545 | 13.89° C | 75% | 1024.5 hPa | 0 mm | - | - | - |
| 1778011304 | 13.89° C | 76% | 1024.5 hPa | 0 mm | - | - | - |
| 1778011063 | 13.33° C | 75% | 1024.5 hPa | 0 mm | - | - | - |
| 1778010822 | 13.33° C | 75% | 1024.5 hPa | 0 mm | - | - | - |
| 1778010581 | 13.33° C | 75% | 1024.6 hPa | 0 mm | - | - | - |
| 1778010340 | 12.78° C | 75% | 1024.6 hPa | 0 mm | - | - | - |
| 1778010100 | 12.78° C | 75% | 1024.5 hPa | 0 mm | - | - | - |
| 1778009859 | 12.78° C | 75% | 1024.6 hPa | 0 mm | - | - | - |
| 1778009617 | 12.78° C | 75% | 1024.6 hPa | 0 mm | - | - | - |
| 1778009377 | 12.78° C | 75% | 1024.6 hPa | 0 mm | - | - | - |
* Rain since midnight (hover to see other rain measurements)
** Current wind speed in m/s (hover to see current wind gust speed)